Time,TemperatureF,DewpointF,PressureIn,WindDirection,WindDirectionDegrees,WindSpeedMPH,WindSpeedGustMPH,Humidity,HourlyPrecipIn,Conditions,Clouds,dailyrainin,SolarRadiationWatts/m^2,SoftwareType,DateUTC
2013-11-04 00:03:00,52.4,42.9,29.84,SSW,197,12.7,12.7,70,0.00,BKN,,0.00,0.0,WeatherDisplay:10.37,2013-11-04 06:03:00,
2013-11-04 00:08:00,52.4,42.9,29.84,SE,144,16.0,16.0,70,0.00,BKN,,0.00,0.0,WeatherDisplay:10.37,2013-11-04 06:08:00,
2013-11-04 00:13:00,52.3,42.8,29.84,SE,125,17.3,17.3,70,0.00,BKN,,0.00,0.0,WeatherDisplay:10.37,2013-11-04 06:13:00,
2013-11-04 00:18:00,52.3,42.8,29.84,South,175,11.5,11.5,70,0.00,BKN,,0.00,0.0,WeatherDisplay:10.37,2013-11-04 06:18:00,
2013-11-04 00:23:00,52.3,42.8,29.84,SSW,204,17.3,17.3,70,0.00,BKN,,0.00,0.0,WeatherDisplay:10.37,2013-11-04 06:23:00,
2013-11-04 00:28:00,52.3,42.8,29.83,South,188,10.4,10.4,70,0.00,BKN,,0.00,0.0,WeatherDisplay:10.37,2013-11-04 06:28:00,
2013-11-04 00:33:00,52.1,43.0,29.83,South,186,13.8,13.8,71,0.00,BKN,,0.00,0.0,WeatherDisplay:10.37,2013-11-04 06:33:00,
2013-11-04 00:38:00,52.1,43.0,29.83,SSE,150,11.5,11.5,71,0.00,BKN,,0.00,0.0,WeatherDisplay:10.37,2013-11-04 06:38:00,
2013-11-04 00:43:00,52.0,42.9,29.84,SE,130,14.0,14.0,71,0.00,BKN,,0.00,0.0,WeatherDisplay:10.37,2013-11-04 06:43:00,
2013-11-04 00:48:00,51.9,43.2,29.83,South,189,8.1,8.1,72,0.00,BKN,,0.00,0.0,WeatherDisplay:10.37,2013-11-04 06:48:00,
2013-11-04 00:53:00,51.8,43.1,29.83,SSE,147,8.1,8.1,72,0.00,BKN,,0.00,0.0,WeatherDisplay:10.37,2013-11-04 06:53:00,
2013-11-04 00:58:00,51.7,43.0,29.83,South,187,6.9,6.9,72,0.00,BKN,,0.00,0.0,WeatherDisplay:10.37,2013-11-04 06:58:00,
2013-11-04 01:03:00,51.7,43.0,29.83,South,186,9.2,9.2,72,0.00,BKN,,0.00,0.0,WeatherDisplay:10.37,2013-11-04 07:03:00,
2013-11-04 01:08:00,51.6,42.9,29.83,SSE,152,11.0,11.0,72,0.00,BKN,,0.00,0.0,WeatherDisplay:10.37,2013-11-04 07:08:00,
2013-11-04 01:13:00,51.6,43.2,29.83,SSE,150,7.0,7.0,73,0.00,FEW,,0.00,0.0,WeatherDisplay:10.37,2013-11-04 07:13:00,
2013-11-04 01:18:00,51.5,43.1,29.83,SE,140,10.4,10.4,73,0.00,FEW,,0.00,0.0,WeatherDisplay:10.37,2013-11-04 07:18:00,
2013-11-04 01:23:00,51.5,43.1,29.83,SSE,164,5.8,5.8,73,0.00,FEW,,0.00,0.0,WeatherDisplay:10.37,2013-11-04 07:23:00,
2013-11-04 01:28:00,51.4,43.0,29.83,ESE,108,13.0,13.0,73,0.00,FEW,,0.00,0.0,WeatherDisplay:10.37,2013-11-04 07:28:00,
2013-11-04 01:33:00,51.4,43.0,29.83,SE,130,6.9,6.9,73,0.00,FEW,,0.00,0.0,WeatherDisplay:10.37,2013-11-04 07:33:00,
2013-11-04 01:38:00,51.4,43.0,29.83,SE,128,12.7,12.7,73,0.00,FEW,,0.00,0.0,WeatherDisplay:10.37,2013-11-04 07:38:00,
2013-11-04 01:43:00,51.4,43.4,29.82,SE,131,11.5,11.5,74,0.00,FEW,,0.00,0.0,WeatherDisplay:10.37,2013-11-04 07:43:00,
2013-11-04 01:48:00,51.4,43.4,29.82,SSE,159,12.7,12.7,74,0.00,FEW,,0.00,0.0,WeatherDisplay:10.37,2013-11-04 07:48:00,
2013-11-04 01:53:00,51.4,43.4,29.83,SE,143,8.0,8.0,74,0.00,FEW,,0.00,0.0,WeatherDisplay:10.37,2013-11-04 07:53:00,
2013-11-04 01:58:00,51.3,43.3,29.83,SSE,161,8.0,8.0,74,0.00,FEW,,0.00,0.0,WeatherDisplay:10.37,2013-11-04 07:58:00,
2013-11-04 02:03:00,51.2,43.5,29.82,SSE,160,10.4,10.4,75,0.00,FEW,,0.00,0.0,WeatherDisplay:10.37,2013-11-04 08:03:00,
2013-11-04 02:08:00,51.2,43.5,29.82,South,190,11.5,11.5,75,0.00,FEW,,0.00,0.0,WeatherDisplay:10.37,2013-11-04 08:08:00,
2013-11-04 02:13:00,51.2,43.5,29.82,South,171,12.7,12.7,75,0.00,FEW,,0.00,0.0,WeatherDisplay:10.37,2013-11-04 08:13:00,
2013-11-04 02:18:00,51.2,43.9,29.82,SE,124,9.2,9.2,76,0.00,FEW,,0.00,0.0,WeatherDisplay:10.37,2013-11-04 08:18:00,
2013-11-04 02:23:00,51.3,44.0,29.82,ESE,121,10.4,10.4,76,0.00,FEW,,0.00,0.0,WeatherDisplay:10.37,2013-11-04 08:23:00,
2013-11-04 02:28:00,51.4,44.1,29.82,SSW,193,8.1,8.1,76,0.00,FEW,,0.00,0.0,WeatherDisplay:10.37,2013-11-04 08:28:00,
2013-11-04 02:33:00,51.5,44.2,29.82,SSE,148,8.1,8.1,76,0.00,FEW,,0.00,0.0,WeatherDisplay:10.37,2013-11-04 08:33:00,
2013-11-04 02:38:00,51.5,44.2,29.82,SSE,155,10.4,10.4,76,0.00,FEW,,0.00,0.0,WeatherDisplay:10.37,2013-11-04 08:38:00,
2013-11-04 02:43:00,51.5,44.5,29.82,SSE,167,8.0,8.0,77,0.00,FEW,,0.00,0.0,WeatherDisplay:10.37,2013-11-04 08:43:00,
2013-11-04 02:48:00,51.5,44.5,29.82,SE,127,19.6,19.6,77,0.00,FEW,,0.00,0.0,WeatherDisplay:10.37,2013-11-04 08:48:00,
2013-11-04 02:53:00,51.6,44.6,29.82,SE,135,9.2,9.2,77,0.00,FEW,,0.00,0.0,WeatherDisplay:10.37,2013-11-04 08:53:00,
2013-11-04 02:58:00,51.5,44.5,29.82,SSE,150,17.3,17.3,77,0.00,FEW,,0.00,0.0,WeatherDisplay:10.37,2013-11-04 08:58:00,
2013-11-04 03:03:00,51.5,44.5,29.82,South,182,10.4,10.4,77,0.00,SCT,,0.00,0.0,WeatherDisplay:10.37,2013-11-04 09:03:00,
2013-11-04 03:08:00,51.4,44.8,29.82,ESE,118,11.5,11.5,78,0.00,SCT,,0.00,0.0,WeatherDisplay:10.37,2013-11-04 09:08:00,
2013-11-04 03:13:00,51.3,44.7,29.82,SE,126,13.8,13.8,78,0.00,SCT,,0.00,0.0,WeatherDisplay:10.37,2013-11-04 09:13:00,
2013-11-04 03:18:00,51.2,44.9,29.82,ESE,111,9.2,9.2,79,0.00,SCT,,0.00,0.0,WeatherDisplay:10.37,2013-11-04 09:18:00,
2013-11-04 03:23:00,51.0,44.7,29.82,SSE,148,6.9,6.9,79,0.00,SCT,,0.00,0.0,WeatherDisplay:10.37,2013-11-04 09:23:00,
2013-11-04 03:28:00,50.9,44.6,29.82,ESE,115,9.2,9.2,79,0.00,SCT,,0.00,0.0,WeatherDisplay:10.37,2013-11-04 09:28:00,
2013-11-04 03:33:00,50.8,44.9,29.82,SSE,164,13.8,13.8,80,0.00,SCT,,0.00,0.0,WeatherDisplay:10.37,2013-11-04 09:33:00,
2013-11-04 03:38:00,50.7,44.8,29.82,SSW,192,12.7,12.7,80,0.00,SCT,,0.00,0.0,WeatherDisplay:10.37,2013-11-04 09:38:00,
2013-11-04 03:43:00,50.6,44.7,29.81,SE,139,12.7,12.7,80,0.00,SCT,,0.00,0.0,WeatherDisplay:10.37,2013-11-04 09:43:00,
2013-11-04 03:48:00,50.6,45.0,29.81,South,189,11.5,11.5,81,0.00,SCT,,0.00,0.0,WeatherDisplay:10.37,2013-11-04 09:48:00,
2013-11-04 03:53:00,50.5,44.9,29.80,South,172,15.0,15.0,81,0.00,SCT,,0.00,0.0,WeatherDisplay:10.37,2013-11-04 09:53:00,
2013-11-04 03:58:00,50.5,44.9,29.80,South,171,10.4,10.4,81,0.00,SCT,,0.00,0.0,WeatherDisplay:10.37,2013-11-04 09:58:00,
2013-11-04 04:03:00,50.5,44.9,29.80,SSE,162,12.7,12.7,81,0.00,SCT,,0.00,0.0,WeatherDisplay:10.37,2013-11-04 10:03:00,
2013-11-04 04:08:00,50.5,44.9,29.80,South,190,12.7,12.7,81,0.00,SCT,,0.00,0.0,WeatherDisplay:10.37,2013-11-04 10:08:00,
2013-11-04 04:13:00,50.5,44.9,29.81,SE,142,12.7,12.7,81,0.00,FEW,,0.00,0.0,WeatherDisplay:10.37,2013-11-04 10:13:00,
2013-11-04 04:18:00,50.5,44.9,29.80,South,188,11.5,11.5,81,0.00,FEW,,0.00,0.0,WeatherDisplay:10.37,2013-11-04 10:18:00,
2013-11-04 04:23:00,50.4,44.8,29.80,South,186,14.0,14.0,81,0.00,FEW,,0.00,0.0,WeatherDisplay:10.37,2013-11-04 10:23:00,
2013-11-04 04:28:00,50.3,45.0,29.81,SSE,167,11.5,11.5,82,0.00,FEW,,0.00,0.0,WeatherDisplay:10.37,2013-11-04 10:28:00,
2013-11-04 04:33:00,50.3,45.0,29.80,SE,142,11.5,11.5,82,0.00,FEW,,0.00,0.0,WeatherDisplay:10.37,2013-11-04 10:33:00,
2013-11-04 04:38:00,50.2,44.9,29.81,SSE,149,6.9,6.9,82,0.00,FEW,,0.00,0.0,WeatherDisplay:10.37,2013-11-04 10:38:00,
2013-11-04 04:43:00,50.1,44.8,29.81,SSW,192,11.5,11.5,82,0.00,FEW,,0.00,0.0,WeatherDisplay:10.37,2013-11-04 10:43:00,
2013-11-04 04:48:00,50.0,45.0,29.81,South,172,12.7,12.7,83,0.00,FEW,,0.00,0.0,WeatherDisplay:10.37,2013-11-04 10:48:00,
2013-11-04 04:53:00,50.0,45.0,29.81,SE,131,5.8,5.8,83,0.00,FEW,,0.00,0.0,WeatherDisplay:10.37,2013-11-04 10:53:00,
2013-11-04 04:58:00,49.9,44.9,29.81,South,169,17.3,17.3,83,0.00,FEW,,0.00,0.0,WeatherDisplay:10.37,2013-11-04 10:58:00,
2013-11-04 05:03:00,49.8,44.8,29.80,SSE,164,6.9,6.9,83,0.00,FEW,,0.00,0.0,WeatherDisplay:10.37,2013-11-04 11:03:00,
2013-11-04 05:08:00,49.7,44.7,29.81,SSE,150,10.4,10.4,83,0.00,FEW,,0.00,0.0,WeatherDisplay:10.37,2013-11-04 11:08:00,
2013-11-04 05:13:00,49.7,45.1,29.81,SE,128,5.0,5.0,84,0.00,CLR,,0.00,0.0,WeatherDisplay:10.37,2013-11-04 11:13:00,
2013-11-04 05:15:00,49.6,45.0,29.81,SSE,162,5.8,5.8,84,0.00,CLR,,0.00,0.0,WeatherDisplay:10.37,2013-11-04 11:15:00,
2013-11-04 05:20:00,49.6,45.0,29.82,SSE,157,6.9,6.9,84,0.00,CLR,,0.00,0.0,WeatherDisplay:10.37,2013-11-04 11:20:00,
2013-11-04 05:22:00,49.6,45.0,29.82,SSE,160,5.8,5.8,84,0.00,CLR,,0.00,0.0,WeatherDisplay:10.37,2013-11-04 11:22:00,
2013-11-04 05:27:00,49.6,45.0,29.82,SSE,159,10.4,10.4,84,0.00,CLR,,0.00,0.0,WeatherDisplay:10.37,2013-11-04 11:27:00,
2013-11-04 05:32:00,49.6,45.0,29.82,SSE,147,6.9,6.9,84,0.00,CLR,,0.00,0.0,WeatherDisplay:10.37,2013-11-04 11:32:00,
2013-11-04 05:37:00,49.6,45.0,29.84,SE,135,11.5,11.5,84,0.00,CLR,,0.00,0.0,WeatherDisplay:10.37,2013-11-04 11:37:00,
2013-11-04 05:42:00,49.8,45.2,29.84,SSE,151,6.9,6.9,84,0.00,CLR,,0.00,0.0,WeatherDisplay:10.37,2013-11-04 11:42:00,
2013-11-04 05:47:00,49.8,45.2,29.84,South,190,12.7,12.7,84,0.00,CLR,,0.00,0.0,WeatherDisplay:10.37,2013-11-04 11:47:00,
2013-11-04 05:52:00,49.8,45.2,29.85,SE,138,8.1,8.1,84,0.00,CLR,,0.00,0.0,WeatherDisplay:10.37,2013-11-04 11:52:00,
2013-11-04 05:57:00,49.7,45.4,29.85,SSE,167,8.1,8.1,85,0.00,CLR,,0.00,0.0,WeatherDisplay:10.37,2013-11-04 11:57:00,
2013-11-04 06:02:00,49.7,45.4,29.85,South,186,7.0,7.0,85,0.00,CLR,,0.00,0.0,WeatherDisplay:10.37,2013-11-04 12:02:00,
2013-11-04 06:07:00,49.6,45.3,29.85,South,178,9.2,9.2,85,0.00,CLR,,0.00,0.0,WeatherDisplay:10.37,2013-11-04 12:07:00,
2013-11-04 06:12:00,49.5,45.2,29.85,SSE,150,10.4,10.4,85,0.00,FEW,,0.00,0.0,WeatherDisplay:10.37,2013-11-04 12:12:00,
2013-11-04 06:17:00,49.4,45.1,29.84,SSE,159,5.8,5.8,85,0.00,FEW,,0.00,0.0,WeatherDisplay:10.37,2013-11-04 12:17:00,
2013-11-04 06:22:00,49.3,45.3,29.85,SSE,161,10.4,10.4,86,0.00,FEW,,0.00,0.0,WeatherDisplay:10.37,2013-11-04 12:22:00,
2013-11-04 06:27:00,49.2,45.2,29.85,ESE,109,10.0,10.0,86,0.00,FEW,,0.00,0.0,WeatherDisplay:10.37,2013-11-04 12:27:00,
2013-11-04 06:32:00,49.1,45.1,29.85,SSW,200,8.1,8.1,86,0.00,FEW,,0.00,0.0,WeatherDisplay:10.37,2013-11-04 12:32:00,
2013-11-04 06:37:00,49.0,45.0,29.85,SE,126,9.2,9.2,86,0.00,FEW,,0.00,0.0,WeatherDisplay:10.37,2013-11-04 12:37:00,
2013-11-04 06:42:00,48.9,44.9,29.86,SSE,154,4.6,4.6,86,0.00,FEW,,0.00,0.0,WeatherDisplay:10.37,2013-11-04 12:42:00,
2013-11-04 06:47:00,48.8,44.8,29.86,SSE,153,6.9,6.9,86,0.00,FEW,,0.00,0.0,WeatherDisplay:10.37,2013-11-04 12:47:00,
2013-11-04 06:52:00,48.8,45.1,29.86,South,179,4.6,4.6,87,0.00,FEW,,0.00,0.0,WeatherDisplay:10.37,2013-11-04 12:52:00,
2013-11-04 06:57:00,48.7,45.0,29.86,SE,127,7.0,7.0,87,0.00,FEW,,0.00,0.0,WeatherDisplay:10.37,2013-11-04 12:57:00,
2013-11-04 07:02:00,48.6,44.9,29.87,SSE,150,9.2,9.2,87,0.00,FEW,,0.00,0.0,WeatherDisplay:10.37,2013-11-04 13:02:00,
2013-11-04 07:07:00,48.5,44.8,29.87,SSE,153,6.9,6.9,87,0.00,FEW,,0.00,5.0,WeatherDisplay:10.37,2013-11-04 13:07:00,
2013-11-04 07:12:00,48.5,44.8,29.87,SSE,154,6.9,6.9,87,0.00,FEW,,0.00,11.0,WeatherDisplay:10.37,2013-11-04 13:12:00,
2013-11-04 07:17:00,48.4,45.0,29.87,SSE,148,3.5,3.5,88,0.00,FEW,,0.00,12.0,WeatherDisplay:10.37,2013-11-04 13:17:00,
2013-11-04 07:22:00,48.4,45.0,29.88,SE,134,4.0,4.0,88,0.00,FEW,,0.00,14.0,WeatherDisplay:10.37,2013-11-04 13:22:00,
2013-11-04 07:27:00,48.4,45.0,29.88,SSE,152,3.5,3.5,88,0.00,FEW,,0.00,16.0,WeatherDisplay:10.37,2013-11-04 13:27:00,
2013-11-04 07:32:00,48.5,45.1,29.88,SSE,159,11.5,11.5,88,0.00,FEW,,0.00,18.0,WeatherDisplay:10.37,2013-11-04 13:32:00,
2013-11-04 07:37:00,48.5,45.1,29.89,SSE,153,9.0,9.0,88,0.00,FEW,,0.00,19.0,WeatherDisplay:10.37,2013-11-04 13:37:00,
2013-11-04 07:42:00,48.6,44.9,29.89,South,182,10.4,10.4,87,0.00,FEW,,0.00,21.0,WeatherDisplay:10.37,2013-11-04 13:42:00,
2013-11-04 07:47:00,48.7,45.0,29.90,SE,132,9.2,9.2,87,0.00,FEW,,0.00,23.0,WeatherDisplay:10.37,2013-11-04 13:47:00,
2013-11-04 07:52:00,48.8,45.1,29.90,SSW,200,3.5,3.5,87,0.00,FEW,,0.00,25.0,WeatherDisplay:10.37,2013-11-04 13:52:00,
2013-11-04 07:57:00,49.0,45.3,29.90,South,178,9.2,9.2,87,0.00,FEW,,0.00,26.0,WeatherDisplay:10.37,2013-11-04 13:57:00,
2013-11-04 08:02:00,49.2,45.2,29.90,SSW,202,5.8,5.8,86,0.00,FEW,,0.00,28.0,WeatherDisplay:10.37,2013-11-04 14:02:00,
2013-11-04 08:07:00,49.4,45.4,29.90,South,188,12.7,12.7,86,0.00,FEW,,0.00,28.0,WeatherDisplay:10.37,2013-11-04 14:07:00,
2013-11-04 08:12:00,49.6,45.6,29.91,South,186,12.7,12.7,86,0.00,FEW,,0.00,30.0,WeatherDisplay:10.37,2013-11-04 14:12:00,
2013-11-04 08:17:00,49.8,45.5,29.91,South,180,11.5,11.5,85,0.00,FEW,,0.00,35.0,WeatherDisplay:10.37,2013-11-04 14:17:00,
2013-11-04 08:22:00,50.1,45.8,29.91,South,187,8.1,8.1,85,0.00,FEW,,0.00,83.0,WeatherDisplay:10.37,2013-11-04 14:22:00,
2013-11-04 08:27:00,50.4,46.1,29.92,WSW,242,4.6,4.6,85,0.00,FEW,,0.00,91.0,WeatherDisplay:10.37,2013-11-04 14:27:00,
2013-11-04 08:32:00,50.8,46.1,29.92,SE,142,9.2,9.2,84,0.00,FEW,,0.00,88.0,WeatherDisplay:10.37,2013-11-04 14:32:00,
2013-11-04 08:37:00,51.1,46.1,29.92,South,172,9.2,9.2,83,0.00,FEW,,0.00,93.0,WeatherDisplay:10.37,2013-11-04 14:37:00,
2013-11-04 08:42:00,51.3,46.3,29.92,South,175,9.2,9.2,83,0.00,FEW,,0.00,81.0,WeatherDisplay:10.37,2013-11-04 14:42:00,
2013-11-04 08:47:00,51.5,46.2,29.93,South,188,6.9,6.9,82,0.00,FEW,,0.00,93.0,WeatherDisplay:10.37,2013-11-04 14:47:00,
2013-11-04 08:52:00,51.6,46.0,29.93,SSW,202,11.5,11.5,81,0.00,FEW,,0.00,79.0,WeatherDisplay:10.37,2013-11-04 14:52:00,
2013-11-04 08:57:00,51.8,46.2,29.93,SSE,167,6.9,6.9,81,0.00,FEW,,0.00,63.0,WeatherDisplay:10.37,2013-11-04 14:57:00,
2013-11-04 09:02:00,52.0,46.3,29.93,South,173,11.5,11.5,81,0.00,OVC,,0.00,56.0,WeatherDisplay:10.37,2013-11-04 15:02:00,
2013-11-04 09:07:00,52.2,46.5,29.93,SSW,210,11.5,11.5,81,0.00,OVC,,0.00,51.0,WeatherDisplay:10.37,2013-11-04 15:07:00,
2013-11-04 09:12:00,52.4,46.4,29.93,South,179,7.0,7.0,80,0.00,OVC,,0.00,44.0,WeatherDisplay:10.37,2013-11-04 15:12:00,
2013-11-04 09:17:00,52.6,46.6,29.93,SSW,197,11.5,11.5,80,0.00,OVC,,0.00,49.0,WeatherDisplay:10.37,2013-11-04 15:17:00,
2013-11-04 09:22:00,52.9,46.6,29.93,South,178,8.1,8.1,79,0.00,OVC,,0.00,54.0,WeatherDisplay:10.37,2013-11-04 15:22:00,
2013-11-04 09:27:00,53.3,46.6,29.94,SSW,212,13.8,13.8,78,0.00,OVC,,0.00,54.0,WeatherDisplay:10.37,2013-11-04 15:27:00,
2013-11-04 09:32:00,53.6,46.9,29.94,SW,236,9.0,9.0,78,0.00,OVC,,0.00,91.0,WeatherDisplay:10.37,2013-11-04 15:32:00,
2013-11-04 09:37:00,54.0,47.0,29.94,South,177,11.5,11.5,77,0.00,OVC,,0.00,84.0,WeatherDisplay:10.37,2013-11-04 15:37:00,
2013-11-04 09:42:00,54.4,47.0,29.94,WSW,241,9.2,9.2,76,0.00,OVC,,0.00,128.0,WeatherDisplay:10.37,2013-11-04 15:42:00,
2013-11-04 09:47:00,54.8,47.0,29.94,West,260,9.2,9.2,75,0.00,OVC,,0.00,63.0,WeatherDisplay:10.37,2013-11-04 15:47:00,
2013-11-04 09:52:00,54.7,46.9,29.94,SW,220,4.6,4.6,75,0.00,OVC,,0.00,155.0,WeatherDisplay:10.37,2013-11-04 15:52:00,
2013-11-04 09:57:00,54.9,47.1,29.95,WSW,238,10.4,10.4,75,0.00,OVC,,0.00,84.0,WeatherDisplay:10.37,2013-11-04 15:57:00,
2013-11-04 10:02:00,55.3,47.2,29.95,West,275,12.7,12.7,74,0.00,SCT,,0.00,160.0,WeatherDisplay:10.37,2013-11-04 16:02:00,
2013-11-04 10:07:00,55.2,46.7,29.95,SSW,211,8.1,8.1,73,0.00,SCT,,0.00,54.0,WeatherDisplay:10.37,2013-11-04 16:07:00,
2013-11-04 10:12:00,55.0,46.9,29.95,SSW,211,12.7,12.7,74,0.00,SCT,,0.00,220.0,WeatherDisplay:10.37,2013-11-04 16:12:00,
2013-11-04 10:17:00,55.2,47.1,29.95,SW,235,11.5,11.5,74,0.00,SCT,,0.00,174.0,WeatherDisplay:10.37,2013-11-04 16:17:00,
2013-11-04 10:22:00,55.5,47.3,29.96,SSW,209,6.9,6.9,74,0.00,SCT,,0.00,155.0,WeatherDisplay:10.37,2013-11-04 16:22:00,
2013-11-04 10:27:00,55.6,47.1,29.96,SW,232,11.5,11.5,73,0.00,SCT,,0.00,181.0,WeatherDisplay:10.37,2013-11-04 16:27:00,
2013-11-04 10:32:00,55.6,46.7,29.96,West,277,9.2,9.2,72,0.00,SCT,,0.00,371.0,WeatherDisplay:10.37,2013-11-04 16:32:00,
2013-11-04 10:37:00,55.9,46.6,29.97,West,269,11.5,11.5,71,0.00,SCT,,0.00,464.0,WeatherDisplay:10.37,2013-11-04 16:37:00,
2013-11-04 10:42:00,56.2,46.2,29.97,SSW,205,12.0,12.0,69,0.00,SCT,,0.00,468.0,WeatherDisplay:10.37,2013-11-04 16:42:00,
2013-11-04 10:47:00,56.6,46.5,29.97,SSW,202,8.1,8.1,69,0.00,SCT,,0.00,473.0,WeatherDisplay:10.37,2013-11-04 16:47:00,
2013-11-04 10:52:00,56.9,44.8,29.97,West,267,9.2,9.2,64,0.00,SCT,,0.00,482.0,WeatherDisplay:10.37,2013-11-04 16:52:00,
2013-11-04 10:57:00,57.2,44.7,29.97,West,271,9.2,9.2,63,0.00,SCT,,0.00,494.0,WeatherDisplay:10.37,2013-11-04 16:57:00,
2013-11-04 11:02:00,57.6,45.1,29.97,SSW,201,6.9,6.9,63,0.00,SCT,,0.00,499.0,WeatherDisplay:10.37,2013-11-04 17:02:00,
2013-11-04 11:07:00,57.8,44.4,29.98,WSW,247,5.8,5.8,61,0.00,SCT,,0.00,508.0,WeatherDisplay:10.37,2013-11-04 17:07:00,
2013-11-04 11:12:00,58.0,44.2,29.98,West,280,4.6,4.6,60,0.00,SCT,,0.00,501.0,WeatherDisplay:10.37,2013-11-04 17:12:00,
2013-11-04 11:17:00,58.1,44.3,29.98,South,190,11.5,11.5,60,0.00,SCT,,0.00,457.0,WeatherDisplay:10.37,2013-11-04 17:17:00,
2013-11-04 11:22:00,58.0,43.7,29.98,WNW,284,11.5,11.5,59,0.00,SCT,,0.00,204.0,WeatherDisplay:10.37,2013-11-04 17:22:00,
2013-11-04 11:27:00,57.9,43.7,29.98,SW,215,6.9,6.9,59,0.00,SCT,,0.00,531.0,WeatherDisplay:10.37,2013-11-04 17:27:00,
2013-11-04 11:32:00,58.0,44.6,29.98,SSW,196,7.0,7.0,61,0.00,SCT,,0.00,534.0,WeatherDisplay:10.37,2013-11-04 17:32:00,
2013-11-04 11:37:00,58.1,43.8,29.98,WSW,250,8.1,8.1,59,0.00,SCT,,0.00,536.0,WeatherDisplay:10.37,2013-11-04 17:37:00,
2013-11-04 11:42:00,57.9,44.1,29.98,West,263,8.1,8.1,60,0.00,SCT,,0.00,541.0,WeatherDisplay:10.37,2013-11-04 17:42:00,
2013-11-04 11:47:00,57.9,44.1,29.98,West,272,8.1,8.1,60,0.00,SCT,,0.00,522.0,WeatherDisplay:10.37,2013-11-04 17:47:00,
2013-11-04 11:52:00,57.9,44.1,29.98,NW,319,6.9,6.9,60,0.00,SCT,,0.00,197.0,WeatherDisplay:10.37,2013-11-04 17:52:00,
2013-11-04 11:57:00,57.8,43.1,29.98,NW,323,3.5,3.5,58,0.00,SCT,,0.00,54.0,WeatherDisplay:10.37,2013-11-04 17:57:00,
2013-11-04 12:02:00,57.7,43.9,29.98,WNW,298,6.9,6.9,60,0.00,SCT,,0.00,56.0,WeatherDisplay:10.37,2013-11-04 18:02:00,
2013-11-04 12:07:00,57.9,45.0,29.98,WNW,300,4.0,4.0,62,0.00,SCT,,0.00,54.0,WeatherDisplay:10.37,2013-11-04 18:07:00,
2013-11-04 12:12:00,58.1,43.8,29.98,West,278,4.0,4.0,59,0.00,FEW,,0.00,54.0,WeatherDisplay:10.37,2013-11-04 18:12:00,
2013-11-04 12:17:00,58.1,44.7,29.98,West,259,3.5,3.5,61,0.00,FEW,,0.00,54.0,WeatherDisplay:10.37,2013-11-04 18:17:00,
2013-11-04 12:22:00,58.0,44.2,29.98,SW,217,2.3,2.3,60,0.00,FEW,,0.00,54.0,WeatherDisplay:10.37,2013-11-04 18:22:00,
2013-11-04 12:27:00,58.1,43.8,29.98,SW,227,3.5,3.5,59,0.00,FEW,,0.00,62.0,WeatherDisplay:10.37,2013-11-04 18:27:00,
2013-11-04 12:32:00,58.0,43.7,29.98,SSW,199,4.0,4.0,59,0.00,FEW,,0.00,54.0,WeatherDisplay:10.37,2013-11-04 18:32:00,
2013-11-04 12:37:00,58.0,44.6,29.97,South,185,3.5,3.5,61,0.00,FEW,,0.00,54.0,WeatherDisplay:10.37,2013-11-04 18:37:00,
2013-11-04 12:42:00,58.3,45.3,29.97,WSW,258,3.5,3.5,62,0.00,FEW,,0.00,54.0,WeatherDisplay:10.37,2013-11-04 18:42:00,
2013-11-04 12:47:00,58.4,44.1,29.97,WSW,252,0.0,0.0,59,0.00,FEW,,0.00,54.0,WeatherDisplay:10.37,2013-11-04 18:47:00,
2013-11-04 12:52:00,58.4,44.6,29.97,SSW,193,4.6,4.6,60,0.00,FEW,,0.00,54.0,WeatherDisplay:10.37,2013-11-04 18:52:00,
2013-11-04 12:57:00,58.5,44.7,29.97,SW,215,5.0,5.0,60,0.00,FEW,,0.00,58.0,WeatherDisplay:10.37,2013-11-04 18:57:00,
2013-11-04 13:02:00,58.6,45.2,29.97,SW,221,3.5,3.5,61,0.00,FEW,,0.00,54.0,WeatherDisplay:10.37,2013-11-04 19:02:00,
2013-11-04 13:07:00,58.9,44.1,29.97,North,5,4.0,4.0,58,0.00,FEW,,0.00,56.0,WeatherDisplay:10.37,2013-11-04 19:07:00,
2013-11-04 13:12:00,58.7,44.8,29.97,NE,53,1.2,1.2,60,0.00,FEW,,0.00,60.0,WeatherDisplay:10.37,2013-11-04 19:12:00,
2013-11-04 13:17:00,58.7,44.4,29.97,West,281,4.6,4.6,59,0.00,FEW,,0.00,62.0,WeatherDisplay:10.37,2013-11-04 19:17:00,
2013-11-04 13:22:00,58.9,44.6,29.97,NNW,341,2.3,2.3,59,0.00,FEW,,0.00,56.0,WeatherDisplay:10.37,2013-11-04 19:22:00,
2013-11-04 13:27:00,58.9,45.0,29.97,SSE,153,2.3,2.3,60,0.00,FEW,,0.00,58.0,WeatherDisplay:10.37,2013-11-04 19:27:00,
2013-11-04 13:32:00,59.1,45.2,29.97,South,186,5.8,5.8,60,0.00,FEW,,0.00,160.0,WeatherDisplay:10.37,2013-11-04 19:32:00,
2013-11-04 13:37:00,59.4,45.1,29.96,South,175,3.5,3.5,59,0.00,FEW,,0.00,141.0,WeatherDisplay:10.37,2013-11-04 19:37:00,
2013-11-04 13:42:00,59.6,44.3,29.96,North,360,3.5,3.5,57,0.00,FEW,,0.00,72.0,WeatherDisplay:10.37,2013-11-04 19:42:00,
2013-11-04 13:47:00,59.7,44.4,29.96,NNW,346,1.2,1.2,57,0.00,FEW,,0.00,415.0,WeatherDisplay:10.37,2013-11-04 19:47:00,
2013-11-04 13:52:00,60.1,45.7,29.97,SW,229,2.3,2.3,59,0.00,FEW,,0.00,118.0,WeatherDisplay:10.37,2013-11-04 19:52:00,
2013-11-04 13:57:00,60.8,45.5,29.97,SW,234,3.5,3.5,57,0.00,FEW,,0.00,216.0,WeatherDisplay:10.37,2013-11-04 19:57:00,
2013-11-04 14:02:00,61.4,45.6,29.96,West,260,3.5,3.5,56,0.00,SCT,,0.00,471.0,WeatherDisplay:10.37,2013-11-04 20:02:00,
2013-11-04 14:07:00,61.5,45.2,29.96,WNW,285,1.2,1.2,55,0.00,SCT,,0.00,464.0,WeatherDisplay:10.37,2013-11-04 20:07:00,
2013-11-04 14:12:00,61.8,44.5,29.96,West,265,2.3,2.3,53,0.00,SCT,,0.00,457.0,WeatherDisplay:10.37,2013-11-04 20:12:00,
2013-11-04 14:17:00,61.8,44.5,29.97,NNW,348,2.3,2.3,53,0.00,SCT,,0.00,459.0,WeatherDisplay:10.37,2013-11-04 20:17:00,
2013-11-04 14:22:00,62.0,45.6,29.96,WSW,239,3.5,3.5,55,0.00,SCT,,0.00,473.0,WeatherDisplay:10.37,2013-11-04 20:22:00,
2013-11-04 14:27:00,62.2,45.8,29.97,SW,228,2.3,2.3,55,0.00,SCT,,0.00,464.0,WeatherDisplay:10.37,2013-11-04 20:27:00,
2013-11-04 14:32:00,62.8,45.9,29.97,SW,229,2.3,2.3,54,0.00,SCT,,0.00,459.0,WeatherDisplay:10.37,2013-11-04 20:32:00,
2013-11-04 14:37:00,63.1,45.7,29.97,South,169,2.3,2.3,53,0.00,SCT,,0.00,214.0,WeatherDisplay:10.37,2013-11-04 20:37:00,
2013-11-04 14:42:00,62.7,45.8,29.97,East,92,3.5,3.5,54,0.00,SCT,,0.00,487.0,WeatherDisplay:10.37,2013-11-04 20:42:00,
2013-11-04 14:47:00,62.7,44.8,29.97,SSE,151,1.2,1.2,52,0.00,SCT,,0.00,476.0,WeatherDisplay:10.37,2013-11-04 20:47:00,
2013-11-04 14:52:00,62.9,45.0,29.97,SSE,151,0.0,0.0,52,0.00,SCT,,0.00,422.0,WeatherDisplay:10.37,2013-11-04 20:52:00,
2013-11-04 14:57:00,63.1,44.7,29.97,SSE,151,1.2,1.2,51,0.00,SCT,,0.00,151.0,WeatherDisplay:10.37,2013-11-04 20:57:00,
2013-11-04 15:02:00,63.0,45.1,29.97,SSE,151,1.2,1.2,52,0.00,BKN,,0.00,130.0,WeatherDisplay:10.37,2013-11-04 21:02:00,
2013-11-04 15:07:00,62.8,45.9,29.97,SSE,151,0.0,0.0,54,0.00,BKN,,0.00,125.0,WeatherDisplay:10.37,2013-11-04 21:07:00,
2013-11-04 15:12:00,62.7,45.8,29.97,SE,141,2.3,2.3,54,0.00,BKN,,0.00,121.0,WeatherDisplay:10.37,2013-11-04 21:12:00,
2013-11-04 15:17:00,62.4,46.5,29.97,SE,141,0.0,0.0,56,0.00,BKN,,0.00,128.0,WeatherDisplay:10.37,2013-11-04 21:17:00,
2013-11-04 15:22:00,62.2,44.9,29.97,SE,141,0.0,0.0,53,0.00,BKN,,0.00,128.0,WeatherDisplay:10.37,2013-11-04 21:22:00,
2013-11-04 15:27:00,62.2,46.3,29.97,SSE,155,3.5,3.5,56,0.00,BKN,,0.00,125.0,WeatherDisplay:10.37,2013-11-04 21:27:00,
2013-11-04 15:32:00,62.0,45.2,29.97,SSE,147,3.5,3.5,54,0.00,BKN,,0.00,127.0,WeatherDisplay:10.37,2013-11-04 21:32:00,
2013-11-04 15:37:00,61.7,45.8,29.97,SSE,147,2.0,2.0,56,0.00,BKN,,0.00,121.0,WeatherDisplay:10.37,2013-11-04 21:37:00,
2013-11-04 15:42:00,61.5,46.1,29.98,SSE,147,0.0,0.0,57,0.00,BKN,,0.00,113.0,WeatherDisplay:10.37,2013-11-04 21:42:00,
2013-11-04 15:47:00,61.4,46.0,29.98,SSE,161,3.5,3.5,57,0.00,BKN,,0.00,109.0,WeatherDisplay:10.37,2013-11-04 21:47:00,
2013-11-04 15:52:00,61.2,46.3,29.97,South,186,1.2,0.0,58,0.00,BKN,,0.00,98.0,WeatherDisplay:10.37,2013-11-04 21:52:00,
2013-11-04 15:57:00,61.1,47.1,29.98,South,186,0.0,0.0,60,0.00,BKN,,0.00,91.0,WeatherDisplay:10.37,2013-11-04 21:57:00,
2013-11-04 16:02:00,61.0,45.7,29.98,South,186,1.2,1.2,57,0.00,BKN,,0.00,86.0,WeatherDisplay:10.37,2013-11-04 22:02:00,
2013-11-04 16:07:00,60.8,45.5,29.98,South,186,1.2,1.2,57,0.00,BKN,,0.00,83.0,WeatherDisplay:10.37,2013-11-04 22:07:00,
2013-11-04 16:12:00,60.7,45.8,29.98,South,186,1.2,1.2,58,0.00,BKN,,0.00,76.0,WeatherDisplay:10.37,2013-11-04 22:12:00,
2013-11-04 16:17:00,60.6,46.2,29.98,South,186,0.0,0.0,59,0.00,BKN,,0.00,67.0,WeatherDisplay:10.37,2013-11-04 22:17:00,
2013-11-04 16:22:00,60.4,46.0,29.98,South,186,0.0,0.0,59,0.00,BKN,,0.00,63.0,WeatherDisplay:10.37,2013-11-04 22:22:00,
2013-11-04 16:27:00,60.2,46.7,29.99,South,186,0.0,0.0,61,0.00,BKN,,0.00,54.0,WeatherDisplay:10.37,2013-11-04 22:27:00,
2013-11-04 16:32:00,60.0,46.5,29.99,South,186,1.2,1.2,61,0.00,BKN,,0.00,49.0,WeatherDisplay:10.37,2013-11-04 22:32:00,
2013-11-04 16:37:00,59.8,46.7,29.99,South,182,1.2,0.0,62,0.00,BKN,,0.00,46.0,WeatherDisplay:10.37,2013-11-04 22:37:00,
2013-11-04 16:42:00,59.6,46.1,29.99,South,182,0.0,0.0,61,0.00,BKN,,0.00,39.0,WeatherDisplay:10.37,2013-11-04 22:42:00,
2013-11-04 16:47:00,59.4,46.8,29.98,South,182,0.0,0.0,63,0.00,BKN,,0.00,35.0,WeatherDisplay:10.37,2013-11-04 22:47:00,
2013-11-04 16:52:00,59.2,45.8,29.99,South,182,0.0,0.0,61,0.00,BKN,,0.00,28.0,WeatherDisplay:10.37,2013-11-04 22:52:00,
2013-11-04 16:57:00,59.0,46.4,29.99,South,182,0.0,0.0,63,0.00,BKN,,0.00,25.0,WeatherDisplay:10.37,2013-11-04 22:57:00,
2013-11-04 17:02:00,58.9,46.3,29.99,South,182,0.0,0.0,63,0.00,BKN,,0.00,21.0,WeatherDisplay:10.37,2013-11-04 23:02:00,
2013-11-04 17:07:00,58.7,46.1,29.99,South,183,0.0,0.0,63,0.00,BKN,,0.00,14.0,WeatherDisplay:10.37,2013-11-04 23:07:00,
2013-11-04 17:12:00,58.4,46.3,29.99,South,183,0.0,0.0,64,0.00,BKN,,0.00,12.0,WeatherDisplay:10.37,2013-11-04 23:12:00,
2013-11-04 17:17:00,58.2,46.1,29.99,South,183,0.0,0.0,64,0.00,BKN,,0.00,9.0,WeatherDisplay:10.37,2013-11-04 23:17:00,
2013-11-04 17:22:00,57.9,46.6,29.99,South,183,0.0,0.0,66,0.00,BKN,,0.00,5.0,WeatherDisplay:10.37,2013-11-04 23:22:00,
2013-11-04 17:27:00,57.7,46.8,29.99,South,183,0.0,0.0,67,0.00,BKN,,0.00,0.0,WeatherDisplay:10.37,2013-11-04 23:27:00,
2013-11-04 17:32:00,57.3,46.8,29.99,South,183,0.0,0.0,68,0.00,BKN,,0.00,0.0,WeatherDisplay:10.37,2013-11-04 23:32:00,
2013-11-04 17:37:00,57.1,47.0,29.99,South,183,0.0,0.0,69,0.00,BKN,,0.00,0.0,WeatherDisplay:10.37,2013-11-04 23:37:00,
2013-11-04 17:42:00,56.7,47.0,29.99,South,183,0.0,0.0,70,0.00,BKN,,0.00,0.0,WeatherDisplay:10.37,2013-11-04 23:42:00,
2013-11-04 17:47:00,56.3,47.4,29.99,South,183,0.0,0.0,72,0.00,BKN,,0.00,0.0,WeatherDisplay:10.37,2013-11-04 23:47:00,
2013-11-04 17:52:00,56.0,47.5,29.99,South,183,0.0,0.0,73,0.00,BKN,,0.00,0.0,WeatherDisplay:10.37,2013-11-04 23:52:00,
2013-11-04 17:57:00,55.7,47.5,29.99,South,183,0.0,0.0,74,0.00,BKN,,0.00,0.0,WeatherDisplay:10.37,2013-11-04 23:57:00,
2013-11-04 18:02:00,55.3,47.2,30.00,South,183,0.0,0.0,74,0.00,BKN,,0.00,0.0,WeatherDisplay:10.37,2013-11-05 00:02:00,
2013-11-04 18:07:00,55.0,46.9,30.00,South,183,0.0,0.0,74,0.00,BKN,,0.00,0.0,WeatherDisplay:10.37,2013-11-05 00:07:00,
2013-11-04 18:12:00,54.7,47.3,30.00,South,183,0.0,0.0,76,0.00,BKN,,0.00,0.0,WeatherDisplay:10.37,2013-11-05 00:12:00,
2013-11-04 18:17:00,54.4,47.0,30.00,South,183,0.0,0.0,76,0.00,BKN,,0.00,0.0,WeatherDisplay:10.37,2013-11-05 00:17:00,
2013-11-04 18:22:00,54.2,47.1,30.01,South,183,0.0,0.0,77,0.00,BKN,,0.00,0.0,WeatherDisplay:10.37,2013-11-05 00:22:00,
2013-11-04 18:27:00,54.0,47.0,30.01,South,183,0.0,0.0,77,0.00,BKN,,0.00,0.0,WeatherDisplay:10.37,2013-11-05 00:27:00,
2013-11-04 18:32:00,53.8,47.1,30.01,South,183,0.0,0.0,78,0.00,BKN,,0.00,0.0,WeatherDisplay:10.37,2013-11-05 00:32:00,
2013-11-04 18:37:00,53.7,47.0,30.01,South,183,0.0,0.0,78,0.00,BKN,,0.00,0.0,WeatherDisplay:10.37,2013-11-05 00:37:00,
2013-11-04 18:42:00,53.5,47.1,30.02,South,183,0.0,0.0,79,0.00,BKN,,0.00,0.0,WeatherDisplay:10.37,2013-11-05 00:42:00,
2013-11-04 18:47:00,53.3,47.0,30.02,South,183,0.0,0.0,79,0.00,BKN,,0.00,0.0,WeatherDisplay:10.37,2013-11-05 00:47:00,
2013-11-04 18:52:00,53.2,47.2,30.02,South,183,0.0,0.0,80,0.00,BKN,,0.00,0.0,WeatherDisplay:10.37,2013-11-05 00:52:00,
2013-11-04 18:57:00,53.0,47.3,30.02,South,183,0.0,0.0,81,0.00,BKN,,0.00,0.0,WeatherDisplay:10.37,2013-11-05 00:57:00,
2013-11-04 19:02:00,52.9,47.2,30.02,South,183,0.0,0.0,81,0.00,OVC,,0.00,0.0,WeatherDisplay:10.37,2013-11-05 01:02:00,
2013-11-04 19:07:00,52.8,47.5,30.02,South,183,0.0,0.0,82,0.00,OVC,,0.00,0.0,WeatherDisplay:10.37,2013-11-05 01:07:00,
2013-11-04 19:12:00,52.6,47.3,30.02,South,183,0.0,0.0,82,0.00,OVC,,0.00,0.0,WeatherDisplay:10.37,2013-11-05 01:12:00,
2013-11-04 19:17:00,52.5,47.5,30.03,South,183,0.0,0.0,83,0.00,OVC,,0.00,0.0,WeatherDisplay:10.37,2013-11-05 01:17:00,
2013-11-04 19:22:00,52.4,47.7,30.03,South,183,0.0,0.0,84,0.00,OVC,,0.00,0.0,WeatherDisplay:10.37,2013-11-05 01:22:00,
2013-11-04 19:27:00,52.4,47.7,30.03,South,183,0.0,0.0,84,0.00,OVC,,0.00,0.0,WeatherDisplay:10.37,2013-11-05 01:27:00,
2013-11-04 19:32:00,52.3,47.6,30.03,South,183,0.0,0.0,84,0.00,OVC,,0.00,0.0,WeatherDisplay:10.37,2013-11-05 01:32:00,
2013-11-04 19:37:00,52.2,47.5,30.03,South,183,0.0,0.0,84,0.00,OVC,,0.00,0.0,WeatherDisplay:10.37,2013-11-05 01:37:00,
2013-11-04 19:42:00,52.2,47.5,30.03,South,183,0.0,0.0,84,0.00,OVC,,0.00,0.0,WeatherDisplay:10.37,2013-11-05 01:42:00,
2013-11-04 19:47:00,52.2,47.5,30.03,South,183,0.0,0.0,84,0.00,OVC,,0.00,0.0,WeatherDisplay:10.37,2013-11-05 01:47:00,
2013-11-04 19:52:00,52.2,47.5,30.03,South,183,0.0,0.0,84,0.00,OVC,,0.00,0.0,WeatherDisplay:10.37,2013-11-05 01:52:00,
2013-11-04 19:57:00,52.3,47.9,30.03,South,183,0.0,0.0,85,0.00,OVC,,0.00,0.0,WeatherDisplay:10.37,2013-11-05 01:57:00,
2013-11-04 20:02:00,52.3,47.9,30.03,South,183,0.0,0.0,85,0.00,BKN,,0.00,0.0,WeatherDisplay:10.37,2013-11-05 02:02:00,
2013-11-04 20:07:00,52.3,47.9,30.03,South,183,0.0,0.0,85,0.00,BKN,,0.00,0.0,WeatherDisplay:10.37,2013-11-05 02:07:00,
2013-11-04 20:12:00,52.3,48.2,30.03,South,183,0.0,0.0,86,0.00,BKN,,0.00,0.0,WeatherDisplay:10.37,2013-11-05 02:12:00,
2013-11-04 20:17:00,52.4,48.3,30.03,South,183,0.0,0.0,86,0.00,BKN,,0.00,0.0,WeatherDisplay:10.37,2013-11-05 02:17:00,
2013-11-04 20:22:00,52.4,48.6,30.03,South,183,0.0,0.0,87,0.00,BKN,,0.00,0.0,WeatherDisplay:10.37,2013-11-05 02:22:00,
2013-11-04 20:27:00,52.5,48.7,30.03,South,183,0.0,0.0,87,0.00,BKN,,0.00,0.0,WeatherDisplay:10.37,2013-11-05 02:27:00,
2013-11-04 20:32:00,52.5,48.4,30.03,South,183,0.0,0.0,86,0.00,BKN,,0.00,0.0,WeatherDisplay:10.37,2013-11-05 02:32:00,
2013-11-04 20:37:00,52.5,48.7,30.04,South,183,0.0,0.0,87,0.00,BKN,,0.00,0.0,WeatherDisplay:10.37,2013-11-05 02:37:00,
2013-11-04 20:42:00,52.6,48.8,30.04,South,183,0.0,0.0,87,0.00,BKN,,0.00,0.0,WeatherDisplay:10.37,2013-11-05 02:42:00,
2013-11-04 20:47:00,52.7,48.9,30.04,South,183,0.0,0.0,87,0.00,BKN,,0.00,0.0,WeatherDisplay:10.37,2013-11-05 02:47:00,
2013-11-04 20:52:00,52.8,49.0,30.04,South,183,0.0,0.0,87,0.00,BKN,,0.00,0.0,WeatherDisplay:10.37,2013-11-05 02:52:00,
2013-11-04 20:57:00,53.0,48.9,30.04,South,183,0.0,0.0,86,0.00,BKN,,0.00,0.0,WeatherDisplay:10.37,2013-11-05 02:57:00,
2013-11-04 21:02:00,53.2,48.5,30.04,South,183,0.0,0.0,84,0.00,SCT,,0.00,0.0,WeatherDisplay:10.37,2013-11-05 03:02:00,
2013-11-04 21:07:00,53.4,48.7,30.04,South,183,0.0,0.0,84,0.00,SCT,,0.00,0.0,WeatherDisplay:10.37,2013-11-05 03:07:00,
2013-11-04 21:12:00,53.5,48.8,30.04,South,183,0.0,0.0,84,0.00,SCT,,0.00,0.0,WeatherDisplay:10.37,2013-11-05 03:12:00,
2013-11-04 21:17:00,53.6,48.9,30.04,South,183,0.0,0.0,84,0.00,SCT,,0.00,0.0,WeatherDisplay:10.37,2013-11-05 03:17:00,
2013-11-04 21:22:00,53.7,49.6,30.04,South,183,1.2,1.2,86,0.00,SCT,,0.00,0.0,WeatherDisplay:10.37,2013-11-05 03:22:00,
2013-11-04 21:27:00,54.0,50.2,30.04,SE,136,0.0,0.0,87,0.00,SCT,,0.00,0.0,WeatherDisplay:10.37,2013-11-05 03:27:00,
2013-11-04 21:32:00,54.4,50.9,30.04,SE,136,0.0,0.0,88,0.00,SCT,,0.00,0.0,WeatherDisplay:10.37,2013-11-05 03:32:00,
2013-11-04 21:37:00,54.8,51.3,30.04,SE,136,0.0,0.0,88,0.00,SCT,,0.00,0.0,WeatherDisplay:10.37,2013-11-05 03:37:00,
2013-11-04 21:42:00,55.1,51.6,30.04,SE,136,0.0,0.0,88,0.00,SCT,,0.00,0.0,WeatherDisplay:10.37,2013-11-05 03:42:00,
2013-11-04 21:47:00,55.4,51.6,30.04,SE,136,0.0,0.0,87,0.00,SCT,,0.00,0.0,WeatherDisplay:10.37,2013-11-05 03:47:00,
2013-11-04 21:52:00,55.6,51.8,30.04,SE,136,0.0,0.0,87,0.00,SCT,,0.00,0.0,WeatherDisplay:10.37,2013-11-05 03:52:00,
2013-11-04 21:57:00,55.8,52.0,30.04,South,169,2.3,2.3,87,0.00,SCT,,0.00,0.0,WeatherDisplay:10.37,2013-11-05 03:57:00,
2013-11-04 22:02:00,55.9,52.1,30.05,South,169,0.0,0.0,87,0.00,SCT,,0.00,0.0,WeatherDisplay:10.37,2013-11-05 04:02:00,
2013-11-04 22:07:00,55.9,52.1,30.05,South,169,0.0,0.0,87,0.00,SCT,,0.00,0.0,WeatherDisplay:10.37,2013-11-05 04:07:00,
2013-11-04 22:12:00,56.0,52.2,30.05,South,169,0.0,0.0,87,0.00,BKN,,0.00,0.0,WeatherDisplay:10.37,2013-11-05 04:12:00,
2013-11-04 22:17:00,56.0,52.2,30.05,South,169,1.2,1.2,87,0.00,BKN,,0.00,0.0,WeatherDisplay:10.37,2013-11-05 04:17:00,
2013-11-04 22:22:00,56.1,52.3,30.05,South,169,0.0,0.0,87,0.00,BKN,,0.00,0.0,WeatherDisplay:10.37,2013-11-05 04:22:00,
2013-11-04 22:27:00,56.2,52.4,30.05,South,169,0.0,0.0,87,0.00,BKN,,0.00,0.0,WeatherDisplay:10.37,2013-11-05 04:27:00,
2013-11-04 22:32:00,56.3,52.5,30.05,SSE,155,0.0,0.0,87,0.00,BKN,,0.00,0.0,WeatherDisplay:10.37,2013-11-05 04:32:00,
2013-11-04 22:37:00,56.4,52.6,30.05,SSE,154,2.3,2.3,87,0.00,BKN,,0.00,0.0,WeatherDisplay:10.37,2013-11-05 04:37:00,
2013-11-04 22:42:00,56.4,52.6,30.05,SSE,154,0.0,0.0,87,0.00,BKN,,0.00,0.0,WeatherDisplay:10.37,2013-11-05 04:42:00,
2013-11-04 22:47:00,56.4,52.9,30.05,SSE,154,1.2,1.2,88,0.00,BKN,,0.00,0.0,WeatherDisplay:10.37,2013-11-05 04:47:00,
2013-11-04 22:52:00,56.4,52.9,30.05,SE,144,0.0,0.0,88,0.00,BKN,,0.00,0.0,WeatherDisplay:10.37,2013-11-05 04:52:00,
2013-11-04 22:57:00,56.5,53.0,30.05,SSE,153,0.0,0.0,88,0.00,BKN,,0.00,0.0,WeatherDisplay:10.37,2013-11-05 04:57:00,
2013-11-04 23:01:00,56.5,53.0,30.05,SE,132,3.5,3.5,88,0.00,BKN,,0.00,0.0,WeatherDisplay:10.37,2013-11-05 05:01:00,
2013-11-04 23:06:00,56.6,53.1,30.04,SE,132,0.0,0.0,88,0.00,BKN,,0.00,0.0,WeatherDisplay:10.37,2013-11-05 05:06:00,
2013-11-04 23:11:00,56.6,53.1,30.04,SE,132,1.2,0.0,88,0.00,BKN,,0.00,0.0,WeatherDisplay:10.37,2013-11-05 05:11:00,
2013-11-04 23:16:00,56.6,53.1,30.04,SE,132,1.2,1.2,88,0.00,BKN,,0.00,0.0,WeatherDisplay:10.37,2013-11-05 05:16:00,
2013-11-04 23:21:00,56.6,53.1,30.04,SE,138,2.3,2.3,88,0.00,BKN,,0.00,0.0,WeatherDisplay:10.37,2013-11-05 05:21:00,
2013-11-04 23:26:00,56.6,53.1,30.04,ESE,117,2.3,2.3,88,0.00,BKN,,0.00,0.0,WeatherDisplay:10.37,2013-11-05 05:26:00,
2013-11-04 23:31:00,56.6,53.1,30.04,ESE,117,1.2,1.2,88,0.00,BKN,,0.00,0.0,WeatherDisplay:10.37,2013-11-05 05:31:00,
2013-11-04 23:36:00,56.6,53.1,30.04,ESE,117,1.0,1.0,88,0.00,BKN,,0.00,0.0,WeatherDisplay:10.37,2013-11-05 05:36:00,
2013-11-04 23:41:00,56.6,53.1,30.04,SE,126,1.2,0.0,88,0.00,BKN,,0.00,0.0,WeatherDisplay:10.37,2013-11-05 05:41:00,
2013-11-04 23:46:00,56.6,53.1,30.03,SE,126,0.0,0.0,88,0.00,BKN,,0.00,0.0,WeatherDisplay:10.37,2013-11-05 05:46:00,
2013-11-04 23:51:00,56.6,53.1,30.03,SE,143,1.2,0.0,88,0.00,BKN,,0.00,0.0,WeatherDisplay:10.37,2013-11-05 05:51:00,
2013-11-04 23:56:00,56.6,53.4,30.03,South,171,2.3,2.3,89,0.00,BKN,,0.00,0.0,WeatherDisplay:10.37,2013-11-05 05:56:00,